SCP
0 0 0 0 0 0 0 0 0 0 0 0 0 0 0 0 0 0 0 0 0 0 0 0 0 0 0 0 0 0 -0 0 0 -0 -0 0 0 0 0 0 0 -0 -0 0 0 0 0 -0 -0 0 0 0 0 0
0 0 0 0 0 0 0 0 0 0 0 0 0 0 0 0 0 0 0 0 0 0 0 0 0 0 0 0 0 0 0 -0 -0 -0 -0 -0 0 0 0 0 0 -0 0 0 0 0 0 -0 0 0 -0 0 0 0
0 0 0 0 0 0 0 0 0 0 0 0 0 0 0 0 0 0 0 0 0 0 0 0 0 0 0 0 0 0 0 0 0 0 -0 0 0 -0 0 0 0 0 0 0 0 0 0 -0 0 0 0 0 0 0
0 0 0 0 0 0 0 0 0 0 0 0 0 0 0 0 0 0 0 0 0 0 0 0 0 0 0 0 0 0 0 0 0 0 -0 0 0 -0 0 0 0 0 0 0 0 0 0 0 -0 0 0 0 0 0
0 0 0 0 0 0 0 0 0 0 0 0 0 0 0 0 0 0 0 0 0 0 0 0 0 0 0 0 0 0 0 0 0 0 -0 -0 0 -0 -0 0 0 0 0 0 0 0 0 0 0 0 0 0 0 0
0 0 0 0 0 0 0 0 0 0 0 0 0 0 0 0 0 0 0 0 0 0 0 0 0 0 0 0 0 0 0 0 0 0 -0 -0 -0 -0 -0 0 0 0 0 0 0 0 0 0 0 0 0 -0 -0 -0
0 0 0 0 0 0 0 0 0 0 0 0 0 0 0 0 0 0 0 0 0 0 0 0 0 0 0 0 0 0 0 0 0 0 -0 -0 -0 -0 -0 0 0 0 0 0 0 0 0 0 0 0 0 0 -0 0
0 0 0 0 0 0 0 0 0 0 0 0 0 0 0 0 0 0 0 0 0 0 0 0 0 0 0 0 0 0 0 0 0 0 0 -0 -0 -0 0 0 0 0 0 0 0 0 0 0 0 0 0 0 0 0
0 0 0 0 0 0 0 0 0 0 0 0 0 0 0 0 0 0 0 0 0 0 0 0 0 0 0 0 0 0 0 0 -0 0 -0 -0 -0 0 -0 0 0 0 0 0 0 0 0 0 0 0 0 0 0 0
0 0 0 0 0 0 0 0 0 0 0 0 0 0 0 0 0 0 0 0 0 0 0 0 0 0 0 0 0 0 0 0 -0 -0 0 -0 -0 -0 -0 0 0 0 0 0 0 0 0 0 0 0 0 0 0 0
0 0 0 0 0 0 0 0 0 0 0 0 0 0 0 0 0 0 0 0 0 0 0 0 0 0 0 0 0 0 0 0 -0 -0 -0 -0 -0 -0 -0 -0 0 0 0 0 0 0 0 0 0 0 0 0 0 0
0 0 0 0 0 0 0 0 0 0 0 0 0 0 0 0 0 0 0 0 0 0 0 0 0 0 0 0 0 0 0 0 -0 0 -0 -0 -0 -0 0 -0 -0 0 0 0 0 0 0 0 0 0 0 0 0 0
0 0 0 0 0 0 0 0 0 0 0 0 0 0 0 0 0 0 0 0 0 0 0 0 0 0 0 0 0 0 0 0 0 -0 -0 -0 -0 -0 0 -0 -0 -0 0 0 0 0 0 0 0 0 0 0 0 0
0 0 0 0 0 0 0 0 0 0 0 0 0 0 0 0 0 0 0 0 0 0 0 0 0 0 0 0 0 0 0 0 -0 -0 -0 0 0 0 -0 -0 0 -0 0 0 0 0 0 0 0 0 0 0 0 0
0 0 0 0 0 0 0 0 0 0 0 0 0 0 0 0 0 0 0 0 0 0 0 0 0 0 0 0 0 0 0 0 -0 -0 -0 0 0 -0 -0 -0 -0 -0 -0 0 0 0 0 0 0 0 0 0 0 0
0 0 0 0 0 0 0 0 0 0 0 0 0 0 0 0 0 0 0 0 0 0 0 0 0 0 0 0 0 0 0 0 0 -0 -0 0 -0 -0 -0 -0 0 0 0 0 0 0 0 0 0 0 0 0 0 0
0 0 0 0 0 0 0 0 0 0 0 0 0 0 0 0 0 0 0 0 0 0 0 0 0 0 0 0 0 0 0 0 0 -0 0 -0 -0 0 -0 -0 0 0 0 0 0 0 0 0 0 0 0 0 0 0
0 0 0 0 0 0 0 0 0 0 0 0 0 0 0 0 0 0 0 0 0 0 0 0 0 0 0 0 0 0 0 0 0 0 0 0 0 0 -0 -0 -0 0 0 0 0 0 0 0 0 0 0 0 0 0
0 0 0 -0 0 0 0 0 0 0 0 0 0 0 0 0 0 0 0 0 0 0 0 0 0 0 0 0 0 0 0 0 0 0 0 0 0 0 0 -0 -0 0 0 0 0 0 0 0 0 0 0 0 0 0
0 0 -0 0 0 0 0 0 0 0 0 0 0 0 0 0 0 0 0 0 0 0 0 0 0 0 0 0 0 0 0 0 0 0 0 0 0 0 0 0 0 0 0 0 0 0 0 0 0 0 0 0 0 0
0 0 0 0 0 0 0 0 0 0 0 0 0 0 0 0 0 0 0 0 0 0 0 0 0 0 0 0 0 0 0 0 0 0 0 0 0 0 0 0 0 0 0 0 0 0 0 0 0 0 0 -0 -0 -0
0 0 0 0 0 0 0 0 0 0 0 0 0 0 0 0 0 0 0 0 0 0 0 0 0 0 0 0 0 0 0 0 0 0 0 0 0 0 0 0 0 0 0 0 0 0 -0 0 0 0 0 -0 -0 -0
0 0 0 0 0 0 0 0 0 0 0 0 0 0 0 0 0 0 0 0 0 0 0 0 0 0 0 0 0 0 0 0 0 0 0 0 0 0 0 0 0 0 0 0 0 0 0 0 0 0 -0 -0 -0 -0
0 0 0 0 0 0 0 0 0 0 0 0 0 0 0 0 0 0 0 0 0 0 0 0 0 0 0 0 0 0 0 0 0 0 0 0 0 0 0 0 0 0 0 0 0 0 0 0 0 0 0 0 0 0
0 0 0 0 0 0 0 0 0 0 0 0 0 0 0 0 0 0 0 0 0 0 0 0 0 0 0 0 0 0 0 0 0 0 0 0 0 0 0 0 0 0 0 0 0 0 0 0 0 0 0 0 0 0
0 0 0 0 0 0 0 0 0 0 0 0 0 0 0 0 0 0 0 0 0 0 0 0 0 0 0 0 0 0 0 0 0 0 0 0 0 0 0 0 0 0 0 0 0 0 0 0 0 0 0 0 0 0
0 0 0 0 0 0 0 0 0 0 0 0 0 0 0 0 0 0 0 0 0 0 0 0 0 0 0 0 0 0 0 0 0 0 0 0 0 0 0 0 0 -0 0 0 0 0 0 0 0 0 0 0 0 0
0 0 0 0 0 0 0 0 0 0 0 0 0 0 0 0 0 0 0 0 0 0 0 0 0 0 0 0 0 0 0 0 0 0 0 0 0 0 0 0 0 0 0 0 0 0 0 0 0 0 0 0 0 0
0 0 0 0 0 0 0 0 0 -0 0 0 0 0 0 0 0 0 0 0 0 0 0 0 0 0 0 0 0 -0 0 0 0 0 0 0 0 0 0 0 0 0 0 0 0 0 0 0 0 0 0 0 0 0
0 0 0 0 0 0 0 0 0 -0 0 0 0 0 0 0 0 0 0 0 0 0 0 0 0 0 0 0 -0 0 0 0 0 0 0 0 0 0 0 0 0 0 0 0 0 0 0 0 0 0 0 0 0 0
0 0 0 0 0 0 0 0 0 0 0 0 0 0 0 -0 -0 -0 0 0 0 0 0 0 0 0 0 0 0 0 0 0 0 0 0 0 0 0 0 0 0 0 0 0 0 0 0 0 0 0 0 0 0 0
0 0 0 0 0 0 0 0 0 0 0 0 0 0 0 0 0 0 0 0 0 0 0 0 0 -0 -0 -0 0 0 0 0 0 0 -0 -0 -0 -0 -0 -0 0 0 0 0 0 0 0 0 0 0 0 0 0 0
0 0 0 0 0 0 0 0 0 0 0 0 0 0 0 0 0 0 0 0 0 0 0 0 0 -0 -0 0 0 0 -0 -0 -0 -0 0 -0 -0 -0 0 0 0 0 0 0 0 0 0 0 0 0 0 0 0 0
Wind_Speed_500mb
71 68 66 62 60 61 59 53 51 57 56 54 48 42 34 33 31 32 20 17 12 15 48 20 16 25 27 16 6 22 23 6 7 12 7 7 6 8 7 4 12 9 8 5 6 4 4 43 39 5 7 25 33 43
77 74 68 65 61 60 58 51 52 58 56 53 43 38 34 32 30 32 23 14 25 27 44 66 41 21 31 33 33 10 11 14 11 5 4 6 5 6 10 6 7 4 7 7 7 3 17 50 37 46 22 5 39 59
76 74 70 64 64 64 57 53 52 57 49 44 49 41 34 30 30 30 29 21 23 22 39 19 2 20 20 15 21 11 6 10 16 9 8 4 5 5 6 4 7 6 7 3 7 7 24 41 44 29 35 51 58 58
74 72 71 68 64 64 59 54 53 60 50 48 48 38 31 28 30 30 30 25 17 13 11 17 26 17 17 26 28 28 33 19 28 10 5 4 5 8 3 5 4 6 16 10 3 7 28 52 47 33 53 56 63 64
59 65 70 68 65 64 54 55 58 61 50 50 49 35 26 26 29 29 33 32 21 11 9 31 39 1 15 16 4 6 17 29 18 5 5 2 4 3 2 1 4 13 7 6 4 19 9 21 27 35 53 59 61 75
53 58 59 60 61 59 55 56 58 60 50 49 36 33 25 25 28 23 8 13 11 16 10 8 19 10 14 13 8 6 9 7 2 2 1 2 3 2 3 3 9 17 9 7 6 16 14 32 34 31 46 52 61 66
56 54 54 51 52 55 56 59 58 52 54 39 32 27 21 24 26 17 9 4 12 5 8 13 14 10 22 9 10 12 9 6 1 3 2 2 7 6 2 2 11 12 13 14 3 6 19 25 25 40 46 50 57 64
56 61 57 51 52 55 54 59 55 50 41 36 27 21 23 24 27 20 11 32 19 7 9 6 8 15 5 6 6 9 7 6 6 2 2 3 2 5 2 6 8 7 11 17 20 19 27 29 31 39 48 53 60 62
60 62 61 52 46 48 52 52 45 47 34 33 16 19 20 22 13 7 8 12 30 6 6 6 6 8 6 8 6 4 4 2 2 3 1 3 2 3 3 6 5 8 3 11 14 21 26 25 26 32 43 48 57 55
61 58 58 51 46 47 45 41 40 37 30 19 5 9 12 9 13 9 3 10 31 12 13 10 10 8 7 4 2 3 3 2 2 4 6 5 1 5 5 2 9 18 17 20 21 18 22 30 32 34 38 42 48 51
59 57 52 48 44 42 40 39 40 34 28 15 9 12 12 15 14 7 8 11 15 8 14 15 27 9 11 5 6 9 4 3 2 5 4 2 3 5 9 8 11 16 12 10 10 15 19 26 32 34 37 41 47 50
50 51 47 43 38 31 33 38 38 36 22 21 9 12 14 12 8 5 7 6 9 9 12 12 14 22 9 9 2 5 2 3 5 14 3 3 6 17 14 21 17 16 19 24 12 13 22 26 29 32 36 40 42 40
46 47 45 43 41 35 31 31 36 39 29 24 8 9 9 8 5 11 13 7 6 11 17 15 5 7 6 6 4 2 5 5 18 4 4 6 24 25 21 25 24 28 26 21 14 16 18 22 23 29 36 37 38 40
47 44 43 48 46 44 35 41 40 45 22 12 8 9 10 9 10 11 9 9 18 8 19 11 4 3 2 3 2 2 1 5 2 2 7 7 43 34 25 32 28 24 18 18 19 18 17 20 23 25 28 30 31 33
45 44 46 52 42 45 44 39 50 55 16 12 12 10 13 22 17 15 21 21 14 9 14 6 4 0 3 2 1 3 2 6 6 6 5 36 52 40 33 27 25 26 25 26 20 19 17 20 24 29 28 28 27 27
43 43 51 41 40 49 47 40 50 38 11 11 14 9 19 6 12 14 27 31 18 20 12 5 5 3 3 3 2 7 3 7 7 6 7 56 55 46 41 35 29 31 29 24 25 20 18 18 20 24 28 30 29 29
39 47 51 43 50 48 42 52 30 13 15 13 15 27 30 21 17 12 9 16 28 20 5 6 3 9 3 1 5 7 8 6 8 8 24 63 64 59 44 38 32 30 29 29 26 23 19 17 20 27 32 35 33 30
48 46 48 54 58 54 48 23 18 17 18 28 11 14 33 24 13 11 8 16 23 17 16 7 8 4 6 6 6 7 11 7 4 4 30 62 60 51 41 36 35 31 30 28 24 23 22 20 19 21 24 31 34 31
53 51 51 61 70 39 19 24 15 11 26 11 20 27 19 15 25 27 19 15 25 13 12 10 4 6 7 12 12 13 11 11 5 11 34 53 51 47 41 37 32 30 30 28 25 22 20 15 14 19 24 30 34 34
59 48 60 66 59 14 13 13 18 11 10 12 16 19 15 10 11 22 27 24 27 16 7 7 8 9 11 10 13 13 6 11 12 23 37 46 52 44 41 39 34 30 27 25 23 20 23 23 19 18 23 29 33 30
44 68 71 63 21 7 12 10 13 9 6 10 5 10 9 15 17 16 20 35 17 13 10 15 20 21 17 13 9 9 9 12 17 22 47 57 53 44 41 38 33 31 30 31 28 26 23 21 21 23 27 28 29 27
70 71 56 30 7 4 4 10 6 3 5 6 5 9 6 7 10 14 26 12 13 17 22 27 32 26 22 19 21 14 8 10 18 19 42 58 58 52 47 43 40 35 32 29 30 29 26 26 25 25 28 31 32 29
69 54 16 7 4 7 6 12 5 4 1 4 3 3 4 6 8 20 11 14 18 34 33 36 35 23 19 20 19 17 14 13 19 22 29 52 54 51 46 43 42 38 34 32 31 32 31 28 27 27 28 30 30 28
49 15 10 12 15 9 6 8 8 5 5 2 1 3 4 6 13 6 5 10 20 24 29 29 27 23 21 22 23 20 15 15 23 24 27 42 57 55 46 43 42 42 28 35 40 35 29 27 26 28 30 32 31 30
9 7 10 5 10 6 7 6 7 4 6 7 5 5 5 8 4 4 5 8 21 28 29 26 24 29 28 27 25 19 16 15 20 27 31 34 47 60 55 47 45 40 33 37 40 36 31 29 30 34 33 33 33 33
5 12 13 13 7 8 8 7 10 11 6 8 9 6 5 3 3 6 5 3 6 12 18 30 32 33 29 24 21 19 11 11 19 24 26 36 42 53 58 57 47 52 45 38 38 36 33 32 29 31 36 40 34 31
2 6 8 11 6 4 2 5 4 5 7 7 4 4 7 6 7 3 5 10 13 12 11 21 36 32 28 26 20 14 9 5 10 16 17 32 40 42 42 52 56 47 45 41 38 35 31 27 28 24 24 29 36 30
4 3 5 7 6 6 1 1 2 2 2 4 1 4 5 3 5 2 6 17 13 9 7 17 23 23 21 22 19 16 12 7 9 10 9 14 39 45 42 35 39 39 41 39 37 35 33 25 24 22 24 24 31 33
4 4 2 4 6 6 6 5 6 4 4 3 1 2 2 3 3 4 7 12 10 7 12 25 31 27 22 19 19 15 8 1 1 6 15 23 31 39 37 37 39 41 37 35 36 31 28 23 24 16 14 16 24 29
5 7 2 2 2 4 3 5 8 18 10 1 3 2 2 1 3 6 7 12 10 12 17 25 23 22 22 24 23 21 15 7 1 10 11 16 30 35 49 34 36 37 36 34 33 32 29 25 27 32 27 22 22 29
2 8 3 2 4 4 3 2 2 3 5 5 4 2 4 4 6 5 9 11 8 16 28 27 23 23 24 23 20 19 18 12 7 1 12 8 6 24 50 42 32 32 32 26 24 29 30 28 27 32 35 36 34 33
4 5 4 4 6 5 6 2 2 2 2 3 3 2 5 4 2 3 11 4 23 21 29 25 17 17 17 12 9 6 3 3 7 10 10 8 17 32 40 29 21 20 24 28 28 26 24 25 24 26 33 43 47 47
2 1 2 3 3 2 4 4 4 4 7 5 5 3 7 7 7 3 24 17 21 20 21 22 16 18 18 15 11 7 1 2 8 11 17 19 17 17 18 20 17 14 16 16 17 19 20 19 20 24 25 26 29 35
Wind_Direction_500mb
289 292 292 294 296 299 302 304 304 305 303 306 303 313 319 320 321 320 313 281 265 276 290 268 267 263 278 278 264 313 331 351 325 13 5 335 319 7 345 34 334 349 351 345 341 30 59 342 330 329 348 341 119 99
283 286 287 290 294 295 300 299 301 298 302 304 299 305 312 310 312 312 306 280 280 273 278 298 291 287 275 283 272 287 267 306 339 346 351 304 324 336 8 328 343 30 21 303 353 33 304 306 266 286 292 319 104 116
281 280 281 283 290 293 296 292 295 295 300 299 294 298 305 302 302 305 297 298 293 290 301 290 252 321 308 307 257 240 294 345 332 328 308 306 327 338 1 12 288 340 42 308 310 319 322 344 27 80 110 107 115 118
277 277 277 278 284 288 293 294 289 290 288 292 294 290 296 294 300 304 295 295 273 295 286 284 307 319 292 300 282 264 259 323 325 327 335 18 327 38 23 317 325 306 315 307 313 332 332 12 27 70 103 118 122 123
295 283 276 273 274 281 284 292 288 285 287 286 285 281 283 286 296 298 294 286 258 238 276 291 315 54 342 331 281 245 257 267 296 359 44 358 306 311 57 340 341 337 344 354 356 328 304 344 52 88 99 106 118 129
296 296 284 274 270 273 282 284 282 282 282 282 271 274 276 286 296 305 293 246 229 216 298 301 312 272 334 312 266 261 209 232 40 65 153 108 13 103 44 350 301 353 358 9 299 23 49 69 92 112 108 110 122 129
285 294 296 286 277 274 275 277 279 279 279 272 266 262 267 278 281 267 248 233 199 185 278 290 294 282 311 272 251 221 219 230 295 138 80 103 21 70 92 332 327 350 341 354 351 56 63 80 82 113 123 125 131 127
279 280 287 290 287 282 279 281 282 277 255 258 252 248 264 276 280 285 266 224 197 226 246 275 274 309 259 264 249 212 211 187 38 102 106 82 70 69 8 275 278 36 62 51 60 96 106 106 115 118 123 130 126 126
275 273 276 284 287 286 283 272 278 269 244 259 250 262 277 261 239 167 209 221 204 210 267 260 270 264 288 265 248 203 202 101 301 97 199 109 340 47 251 345 66 195 165 116 95 106 117 115 128 125 127 131 127 130
270 273 271 276 283 285 281 272 267 258 247 224 224 260 244 195 179 182 169 164 193 232 225 247 230 265 278 293 292 144 141 173 278 247 123 66 229 222 199 73 139 138 133 141 129 132 128 118 119 129 138 138 140 140
267 267 268 264 273 282 266 249 247 231 222 187 134 246 189 189 182 192 208 194 196 228 217 233 216 240 260 199 238 197 180 166 288 259 108 343 272 218 157 153 154 173 162 164 150 148 158 146 134 123 126 134 137 137
272 264 262 255 265 266 268 245 241 219 186 163 208 216 185 200 205 197 216 208 215 226 212 201 233 219 257 242 193 198 132 200 269 146 162 267 251 162 159 143 125 147 145 122 119 116 138 140 143 144 138 134 130 131
278 269 257 248 254 253 263 252 228 205 168 162 233 222 193 186 200 209 201 218 218 205 199 204 221 227 230 249 238 177 208 216 134 224 266 223 169 169 167 166 136 115 118 113 123 119 126 129 133 139 141 140 138 137
271 270 258 250 248 242 252 241 222 173 156 155 197 239 203 202 229 206 196 184 222 225 187 190 185 192 292 2 160 355 31 114 276 323 242 181 174 169 157 163 167 156 148 141 137 134 132 147 150 150 152 150 152 148
262 262 250 258 246 235 224 225 188 163 147 195 211 230 220 228 247 248 230 241 243 208 169 142 94 67 332 344 5 84 170 255 210 238 233 175 171 167 159 153 163 167 155 147 146 145 153 151 155 158 162 158 160 156
256 260 257 243 235 219 209 211 171 152 193 217 231 248 247 283 252 245 241 244 216 182 144 121 90 55 272 171 276 232 140 232 252 230 201 169 171 168 167 175 180 186 191 185 186 181 164 166 167 159 157 168 167 163
257 244 254 232 219 201 186 148 162 178 203 220 234 233 245 276 252 250 213 221 195 172 143 117 161 212 102 323 261 184 200 218 262 265 186 176 175 179 178 177 180 177 182 190 188 182 169 157 157 164 168 168 168 166
237 239 241 207 191 156 155 160 176 198 230 233 236 241 222 228 246 246 235 191 171 178 151 195 145 164 199 202 262 244 237 250 276 225 186 182 184 181 180 180 183 191 193 190 186 180 180 178 176 174 173 170 173 177
230 230 206 199 180 144 155 187 195 227 228 233 240 252 242 239 235 241 252 238 215 180 166 155 138 197 229 216 233 265 240 213 216 180 181 186 181 180 180 181 183 184 188 189 188 187 186 184 185 185 185 187 186 180
217 207 193 183 153 142 173 180 195 231 226 214 218 226 220 217 226 225 230 222 190 164 161 186 207 220 224 260 273 268 241 211 197 158 173 180 179 180 180 181 182 184 185 187 185 182 180 177 175 172 172 171 171 174
155 171 171 155 167 177 187 188 199 220 243 233 227 214 229 228 233 216 187 183 175 189 204 218 238 263 261 251 248 219 219 234 224 209 181 177 183 187 185 189 191 191 190 187 186 182 184 179 168 162 161 157 152 147
155 154 159 170 168 225 264 212 210 281 234 264 233 215 220 199 208 199 173 176 196 214 215 232 258 278 249 247 232 225 226 238 229 218 194 183 182 188 193 195 196 197 197 194 187 182 172 167 166 164 166 163 163 165
154 158 133 100 126 199 247 183 152 197 275 256 237 209 237 222 213 171 187 204 210 237 246 252 259 270 246 225 215 221 221 226 225 212 201 198 195 193 195 199 202 199 194 190 180 172 171 173 178 176 170 174 181 189
150 133 163 192 201 213 205 194 194 219 230 221 212 271 228 223 170 202 214 208 221 234 235 246 243 223 208 209 213 217 238 240 224 216 209 206 201 196 202 204 202 201 196 181 181 184 191 197 200 206 207 206 207 211
113 171 154 222 203 201 206 182 176 170 222 201 191 272 259 180 160 219 221 240 237 243 243 235 221 211 214 215 211 224 238 235 224 219 215 216 214 203 201 208 208 201 190 188 191 194 201 214 223 224 222 221 223 227
134 190 178 194 187 190 206 173 186 193 175 180 222 233 198 130 179 236 228 299 268 288 243 224 207 201 208 212 210 213 232 237 212 220 222 219 218 212 200 209 211 206 199 195 198 205 215 226 236 242 243 232 230 234
119 210 206 215 221 224 276 239 165 144 181 209 222 182 178 197 209 260 350 351 330 309 264 211 210 205 191 182 174 179 180 173 213 234 244 228 224 216 215 211 206 202 201 199 204 213 222 239 243 255 242 228 220 218
256 289 177 171 205 230 244 175 121 88 38 346 269 227 190 167 184 5 359 353 349 27 112 153 168 180 183 174 178 184 187 223 244 239 216 201 214 217 218 218 210 201 204 207 212 217 223 236 245 249 249 237 225 222
268 259 288 207 194 200 228 192 150 116 304 243 136 344 106 93 32 349 342 355 333 199 158 153 159 175 184 185 190 195 204 108 36 239 215 207 203 210 206 209 200 198 199 207 212 223 229 231 226 238 254 255 240 238
251 213 212 266 188 207 196 186 168 174 208 243 33 117 131 105 350 347 345 310 291 198 190 168 167 186 190 186 189 193 194 198 285 348 322 259 229 214 206 193 193 195 199 202 210 218 222 229 224 227 236 242 231 218
260 189 218 232 257 218 202 69 84 218 219 227 227 201 128 100 32 8 343 313 200 170 169 172 177 182 188 190 199 203 206 200 195 62 19 42 183 191 189 187 181 197 205 208 208 205 214 227 230 231 236 240 237 233
195 198 186 208 259 253 266 247 219 194 137 113 65 138 120 112 64 103 10 141 157 159 157 159 164 160 159 161 153 152 138 194 164 159 167 132 155 144 150 177 205 198 205 208 209 222 224 225 237 248 250 247 247 246
188 203 226 280 295 273 182 170 132 94 61 65 332 141 116 138 194 74 53 100 143 148 152 160 157 153 157 158 151 148 133 110 157 153 151 150 151 160 169 169 170 167 169 173 189 202 211 226 254 272 263 257 251 243
Wind_Speed_850mb
71 68 66 62 60 61 59 53 51 57 56 54 48 42 34 33 31 32 20 17 12 15 48 20 16 25 27 16 6 22 23 6 7 12 7 7 6 8 7 4 12 9 8 5 6 4 4 43 39 5 7 25 33 43
77 74 68 65 61 60 58 51 52 58 56 53 43 38 34 32 30 32 23 14 25 27 44 66 41 21 31 33 33 10 11 14 11 5 4 6 5 6 10 6 7 4 7 7 7 3 17 50 37 46 22 5 39 59
76 74 70 64 64 64 57 53 52 57 49 44 49 41 34 30 30 30 29 21 23 22 39 19 2 20 20 15 21 11 6 10 16 9 8 4 5 5 6 4 7 6 7 3 7 7 24 41 44 29 35 51 58 58
74 72 71 68 64 64 59 54 53 60 50 48 48 38 31 28 30 30 30 25 17 13 11 17 26 17 17 26 28 28 33 19 28 10 5 4 5 8 3 5 4 6 16 10 3 7 28 52 47 33 53 56 63 64
59 65 70 68 65 64 54 55 58 61 50 50 49 35 26 26 29 29 33 32 21 11 9 31 39 1 15 16 4 6 17 29 18 5 5 2 4 3 2 1 4 13 7 6 4 19 9 21 27 35 53 59 61 75
53 58 59 60 61 59 55 56 58 60 50 49 36 33 25 25 28 23 8 13 11 16 10 8 19 10 14 13 8 6 9 7 2 2 1 2 3 2 3 3 9 17 9 7 6 16 14 32 34 31 46 52 61 66
56 54 54 51 52 55 56 59 58 52 54 39 32 27 21 24 26 17 9 4 12 5 8 13 14 10 22 9 10 12 9 6 1 3 2 2 7 6 2 2 11 12 13 14 3 6 19 25 25 40 46 50 57 64
56 61 57 51 52 55 54 59 55 50 41 36 27 21 23 24 27 20 11 32 19 7 9 6 8 15 5 6 6 9 7 6 6 2 2 3 2 5 2 6 8 7 11 17 20 19 27 29 31 39 48 53 60 62
60 62 61 52 46 48 52 52 45 47 34 33 16 19 20 22 13 7 8 12 30 6 6 6 6 8 6 8 6 4 4 2 2 3 1 3 2 3 3 6 5 8 3 11 14 21 26 25 26 32 43 48 57 55
61 58 58 51 46 47 45 41 40 37 30 19 5 9 12 9 13 9 3 10 31 12 13 10 10 8 7 4 2 3 3 2 2 4 6 5 1 5 5 2 9 18 17 20 21 18 22 30 32 34 38 42 48 51
59 57 52 48 44 42 40 39 40 34 28 15 9 12 12 15 14 7 8 11 15 8 14 15 27 9 11 5 6 9 4 3 2 5 4 2 3 5 9 8 11 16 12 10 10 15 19 26 32 34 37 41 47 50
50 51 47 43 38 31 33 38 38 36 22 21 9 12 14 12 8 5 7 6 9 9 12 12 14 22 9 9 2 5 2 3 5 14 3 3 6 17 14 21 17 16 19 24 12 13 22 26 29 32 36 40 42 40
46 47 45 43 41 35 31 31 36 39 29 24 8 9 9 8 5 11 13 7 6 11 17 15 5 7 6 6 4 2 5 5 18 4 4 6 24 25 21 25 24 28 26 21 14 16 18 22 23 29 36 37 38 40
47 44 43 48 46 44 35 41 40 45 22 12 8 9 10 9 10 11 9 9 18 8 19 11 4 3 2 3 2 2 1 5 2 2 7 7 43 34 25 32 28 24 18 18 19 18 17 20 23 25 28 30 31 33
45 44 46 52 42 45 44 39 50 55 16 12 12 10 13 22 17 15 21 21 14 9 14 6 4 0 3 2 1 3 2 6 6 6 5 36 52 40 33 27 25 26 25 26 20 19 17 20 24 29 28 28 27 27
43 43 51 41 40 49 47 40 50 38 11 11 14 9 19 6 12 14 27 31 18 20 12 5 5 3 3 3 2 7 3 7 7 6 7 56 55 46 41 35 29 31 29 24 25 20 18 18 20 24 28 30 29 29
39 47 51 43 50 48 42 52 30 13 15 13 15 27 30 21 17 12 9 16 28 20 5 6 3 9 3 1 5 7 8 6 8 8 24 63 64 59 44 38 32 30 29 29 26 23 19 17 20 27 32 35 33 30
48 46 48 54 58 54 48 23 18 17 18 28 11 14 33 24 13 11 8 16 23 17 16 7 8 4 6 6 6 7 11 7 4 4 30 62 60 51 41 36 35 31 30 28 24 23 22 20 19 21 24 31 34 31
53 51 51 61 70 39 19 24 15 11 26 11 20 27 19 15 25 27 19 15 25 13 12 10 4 6 7 12 12 13 11 11 5 11 34 53 51 47 41 37 32 30 30 28 25 22 20 15 14 19 24 30 34 34
59 48 60 66 59 14 13 13 18 11 10 12 16 19 15 10 11 22 27 24 27 16 7 7 8 9 11 10 13 13 6 11 12 23 37 46 52 44 41 39 34 30 27 25 23 20 23 23 19 18 23 29 33 30
44 68 71 63 21 7 12 10 13 9 6 10 5 10 9 15 17 16 20 35 17 13 10 15 20 21 17 13 9 9 9 12 17 22 47 57 53 44 41 38 33 31 30 31 28 26 23 21 21 23 27 28 29 27
70 71 56 30 7 4 4 10 6 3 5 6 5 9 6 7 10 14 26 12 13 17 22 27 32 26 22 19 21 14 8 10 18 19 42 58 58 52 47 43 40 35 32 29 30 29 26 26 25 25 28 31 32 29
69 54 16 7 4 7 6 12 5 4 1 4 3 3 4 6 8 20 11 14 18 34 33 36 35 23 19 20 19 17 14 13 19 22 29 52 54 51 46 43 42 38 34 32 31 32 31 28 27 27 28 30 30 28
49 15 10 12 15 9 6 8 8 5 5 2 1 3 4 6 13 6 5 10 20 24 29 29 27 23 21 22 23 20 15 15 23 24 27 42 57 55 46 43 42 42 28 35 40 35 29 27 26 28 30 32 31 30
9 7 10 5 10 6 7 6 7 4 6 7 5 5 5 8 4 4 5 8 21 28 29 26 24 29 28 27 25 19 16 15 20 27 31 34 47 60 55 47 45 40 33 37 40 36 31 29 30 34 33 33 33 33
5 12 13 13 7 8 8 7 10 11 6 8 9 6 5 3 3 6 5 3 6 12 18 30 32 33 29 24 21 19 11 11 19 24 26 36 42 53 58 57 47 52 45 38 38 36 33 32 29 31 36 40 34 31
2 6 8 11 6 4 2 5 4 5 7 7 4 4 7 6 7 3 5 10 13 12 11 21 36 32 28 26 20 14 9 5 10 16 17 32 40 42 42 52 56 47 45 41 38 35 31 27 28 24 24 29 36 30
4 3 5 7 6 6 1 1 2 2 2 4 1 4 5 3 5 2 6 17 13 9 7 17 23 23 21 22 19 16 12 7 9 10 9 14 39 45 42 35 39 39 41 39 37 35 33 25 24 22 24 24 31 33
4 4 2 4 6 6 6 5 6 4 4 3 1 2 2 3 3 4 7 12 10 7 12 25 31 27 22 19 19 15 8 1 1 6 15 23 31 39 37 37 39 41 37 35 36 31 28 23 24 16 14 16 24 29
5 7 2 2 2 4 3 5 8 18 10 1 3 2 2 1 3 6 7 12 10 12 17 25 23 22 22 24 23 21 15 7 1 10 11 16 30 35 49 34 36 37 36 34 33 32 29 25 27 32 27 22 22 29
2 8 3 2 4 4 3 2 2 3 5 5 4 2 4 4 6 5 9 11 8 16 28 27 23 23 24 23 20 19 18 12 7 1 12 8 6 24 50 42 32 32 32 26 24 29 30 28 27 32 35 36 34 33
4 5 4 4 6 5 6 2 2 2 2 3 3 2 5 4 2 3 11 4 23 21 29 25 17 17 17 12 9 6 3 3 7 10 10 8 17 32 40 29 21 20 24 28 28 26 24 25 24 26 33 43 47 47
2 1 2 3 3 2 4 4 4 4 7 5 5 3 7 7 7 3 24 17 21 20 21 22 16 18 18 15 11 7 1 2 8 11 17 19 17 17 18 20 17 14 16 16 17 19 20 19 20 24 25 26 29 35
Wind_Direction_850mb
289 292 292 294 296 299 302 304 304 305 303 306 303 313 319 320 321 320 313 281 265 276 290 268 267 263 278 278 264 313 331 351 325 13 5 335 319 7 345 34 334 349 351 345 341 30 59 342 330 329 348 341 119 99
283 286 287 290 294 295 300 299 301 298 302 304 299 305 312 310 312 312 306 280 280 273 278 298 291 287 275 283 272 287 267 306 339 346 351 304 324 336 8 328 343 30 21 303 353 33 304 306 266 286 292 319 104 116
281 280 281 283 290 293 296 292 295 295 300 299 294 298 305 302 302 305 297 298 293 290 301 290 252 321 308 307 257 240 294 345 332 328 308 306 327 338 1 12 288 340 42 308 310 319 322 344 27 80 110 107 115 118
277 277 277 278 284 288 293 294 289 290 288 292 294 290 296 294 300 304 295 295 273 295 286 284 307 319 292 300 282 264 259 323 325 327 335 18 327 38 23 317 325 306 315 307 313 332 332 12 27 70 103 118 122 123
295 283 276 273 274 281 284 292 288 285 287 286 285 281 283 286 296 298 294 286 258 238 276 291 315 54 342 331 281 245 257 267 296 359 44 358 306 311 57 340 341 337 344 354 356 328 304 344 52 88 99 106 118 129
296 296 284 274 270 273 282 284 282 282 282 282 271 274 276 286 296 305 293 246 229 216 298 301 312 272 334 312 266 261 209 232 40 65 153 108 13 103 44 350 301 353 358 9 299 23 49 69 92 112 108 110 122 129
285 294 296 286 277 274 275 277 279 279 279 272 266 262 267 278 281 267 248 233 199 185 278 290 294 282 311 272 251 221 219 230 295 138 80 103 21 70 92 332 327 350 341 354 351 56 63 80 82 113 123 125 131 127
279 280 287 290 287 282 279 281 282 277 255 258 252 248 264 276 280 285 266 224 197 226 246 275 274 309 259 264 249 212 211 187 38 102 106 82 70 69 8 275 278 36 62 51 60 96 106 106 115 118 123 130 126 126
275 273 276 284 287 286 283 272 278 269 244 259 250 262 277 261 239 167 209 221 204 210 267 260 270 264 288 265 248 203 202 101 301 97 199 109 340 47 251 345 66 195 165 116 95 106 117 115 128 125 127 131 127 130
270 273 271 276 283 285 281 272 267 258 247 224 224 260 244 195 179 182 169 164 193 232 225 247 230 265 278 293 292 144 141 173 278 247 123 66 229 222 199 73 139 138 133 141 129 132 128 118 119 129 138 138 140 140
267 267 268 264 273 282 266 249 247 231 222 187 134 246 189 189 182 192 208 194 196 228 217 233 216 240 260 199 238 197 180 166 288 259 108 343 272 218 157 153 154 173 162 164 150 148 158 146 134 123 126 134 137 137
272 264 262 255 265 266 268 245 241 219 186 163 208 216 185 200 205 197 216 208 215 226 212 201 233 219 257 242 193 198 132 200 269 146 162 267 251 162 159 143 125 147 145 122 119 116 138 140 143 144 138 134 130 131
278 269 257 248 254 253 263 252 228 205 168 162 233 222 193 186 200 209 201 218 218 205 199 204 221 227 230 249 238 177 208 216 134 224 266 223 169 169 167 166 136 115 118 113 123 119 126 129 133 139 141 140 138 137
271 270 258 250 248 242 252 241 222 173 156 155 197 239 203 202 229 206 196 184 222 225 187 190 185 192 292 2 160 355 31 114 276 323 242 181 174 169 157 163 167 156 148 141 137 134 132 147 150 150 152 150 152 148
262 262 250 258 246 235 224 225 188 163 147 195 211 230 220 228 247 248 230 241 243 208 169 142 94 67 332 344 5 84 170 255 210 238 233 175 171 167 159 153 163 167 155 147 146 145 153 151 155 158 162 158 160 156
256 260 257 243 235 219 209 211 171 152 193 217 231 248 247 283 252 245 241 244 216 182 144 121 90 55 272 171 276 232 140 232 252 230 201 169 171 168 167 175 180 186 191 185 186 181 164 166 167 159 157 168 167 163
257 244 254 232 219 201 186 148 162 178 203 220 234 233 245 276 252 250 213 221 195 172 143 117 161 212 102 323 261 184 200 218 262 265 186 176 175 179 178 177 180 177 182 190 188 182 169 157 157 164 168 168 168 166
237 239 241 207 191 156 155 160 176 198 230 233 236 241 222 228 246 246 235 191 171 178 151 195 145 164 199 202 262 244 237 250 276 225 186 182 184 181 180 180 183 191 193 190 186 180 180 178 176 174 173 170 173 177
230 230 206 199 180 144 155 187 195 227 228 233 240 252 242 239 235 241 252 238 215 180 166 155 138 197 229 216 233 265 240 213 216 180 181 186 181 180 180 181 183 184 188 189 188 187 186 184 185 185 185 187 186 180
217 207 193 183 153 142 173 180 195 231 226 214 218 226 220 217 226 225 230 222 190 164 161 186 207 220 224 260 273 268 241 211 197 158 173 180 179 180 180 181 182 184 185 187 185 182 180 177 175 172 172 171 171 174
155 171 171 155 167 177 187 188 199 220 243 233 227 214 229 228 233 216 187 183 175 189 204 218 238 263 261 251 248 219 219 234 224 209 181 177 183 187 185 189 191 191 190 187 186 182 184 179 168 162 161 157 152 147
155 154 159 170 168 225 264 212 210 281 234 264 233 215 220 199 208 199 173 176 196 214 215 232 258 278 249 247 232 225 226 238 229 218 194 183 182 188 193 195 196 197 197 194 187 182 172 167 166 164 166 163 163 165
154 158 133 100 126 199 247 183 152 197 275 256 237 209 237 222 213 171 187 204 210 237 246 252 259 270 246 225 215 221 221 226 225 212 201 198 195 193 195 199 202 199 194 190 180 172 171 173 178 176 170 174 181 189
150 133 163 192 201 213 205 194 194 219 230 221 212 271 228 223 170 202 214 208 221 234 235 246 243 223 208 209 213 217 238 240 224 216 209 206 201 196 202 204 202 201 196 181 181 184 191 197 200 206 207 206 207 211
113 171 154 222 203 201 206 182 176 170 222 201 191 272 259 180 160 219 221 240 237 243 243 235 221 211 214 215 211 224 238 235 224 219 215 216 214 203 201 208 208 201 190 188 191 194 201 214 223 224 222 221 223 227
134 190 178 194 187 190 206 173 186 193 175 180 222 233 198 130 179 236 228 299 268 288 243 224 207 201 208 212 210 213 232 237 212 220 222 219 218 212 200 209 211 206 199 195 198 205 215 226 236 242 243 232 230 234
119 210 206 215 221 224 276 239 165 144 181 209 222 182 178 197 209 260 350 351 330 309 264 211 210 205 191 182 174 179 180 173 213 234 244 228 224 216 215 211 206 202 201 199 204 213 222 239 243 255 242 228 220 218
256 289 177 171 205 230 244 175 121 88 38 346 269 227 190 167 184 5 359 353 349 27 112 153 168 180 183 174 178 184 187 223 244 239 216 201 214 217 218 218 210 201 204 207 212 217 223 236 245 249 249 237 225 222
268 259 288 207 194 200 228 192 150 116 304 243 136 344 106 93 32 349 342 355 333 199 158 153 159 175 184 185 190 195 204 108 36 239 215 207 203 210 206 209 200 198 199 207 212 223 229 231 226 238 254 255 240 238
251 213 212 266 188 207 196 186 168 174 208 243 33 117 131 105 350 347 345 310 291 198 190 168 167 186 190 186 189 193 194 198 285 348 322 259 229 214 206 193 193 195 199 202 210 218 222 229 224 227 236 242 231 218
260 189 218 232 257 218 202 69 84 218 219 227 227 201 128 100 32 8 343 313 200 170 169 172 177 182 188 190 199 203 206 200 195 62 19 42 183 191 189 187 181 197 205 208 208 205 214 227 230 231 236 240 237 233
195 198 186 208 259 253 266 247 219 194 137 113 65 138 120 112 64 103 10 141 157 159 157 159 164 160 159 161 153 152 138 194 164 159 167 132 155 144 150 177 205 198 205 208 209 222 224 225 237 248 250 247 247 246
188 203 226 280 295 273 182 170 132 94 61 65 332 141 116 138 194 74 53 100 143 148 152 160 157 153 157 158 151 148 133 110 157 153 151 150 151 160 169 169 170 167 169 173 189 202 211 226 254 272 263 257 251 243